Track COSMOS 2425 (GLONASS) now! COSMOS 2425 (GLONASS) is classified as:
1 29670U 06062A 25197.31155869 .00000106 00000-0 00000-0 0 9997 2 29670 64.6926 205.4599 0022663 349.9545 192.5402 2.13116174144425